User: anonymous   Login
Location: Unspecified
(0.0000°N, 0.0000°E)
Time: 14:00:28
(UTC+00:00)
Language:

APRIZESAT 2 (LATINSAT D) - Orbit

View from above orbital plane
View from above orbital plane
View from above satellite
View from above satellite

Ground track
Ground track

The orbit data is extracted from the following two-line orbital elements,

1 28366U 04025A   18050.73218974 +.00000035 +00000-0 +25053-4 0  9998
2 28366 098.3325 321.7920 0108375 030.0389 330.6956 14.36632978715136
Epoch (UTC): 19 February 2018 17:34:21
Eccentricity: 0.0108375
inclination: 98.3325°
perigee height: 692 km
apogee height: 847 km
right ascension of ascending node: 321.7920°
argument of perigee: 30.0389°
revolutions per day: 14.36632978
mean anomaly at epoch: 330.6956°
orbit number at epoch: 71513

The dashed part of the orbit path shows where the satellite is in the earth's shadow,  

DLR